Time,TemperatureF,DewpointF,PressureIn,WindDirection,WindDirectionDegrees,WindSpeedMPH,WindSpeedGustMPH,Humidity,HourlyPrecipIn,Conditions,Clouds,dailyrainin,SoftwareType,DateUTC
2013-09-10 00:04:00,60.4,0.0,29.67,ESE,112,0.0,0.0,0,0.00,,,0.00,WUHU21623XXSP,2013-09-10 07:04:00,
2013-09-10 00:09:00,60.4,0.0,29.67,SSE,157,0.0,0.0,0,0.00,,,0.00,WUHU21623XXSP,2013-09-10 07:09:00,
2013-09-10 00:14:00,60.4,0.0,29.67,ESE,112,0.0,0.0,0,0.00,,,0.00,WUHU21623XXSP,2013-09-10 07:14:00,
2013-09-10 00:19:00,60.1,0.0,29.67,ESE,112,0.0,0.0,0,0.00,,,0.00,WUHU21623XXSP,2013-09-10 07:19:00,
2013-09-10 00:24:00,60.1,0.0,29.67,ENE,67,0.0,0.0,0,0.00,,,0.00,WUHU21623XXSP,2013-09-10 07:24:00,
2013-09-10 00:29:00,59.9,0.0,29.68,SE,135,0.0,0.0,0,0.00,,,0.00,WUHU21623XXSP,2013-09-10 07:29:00,
2013-09-10 00:34:00,59.9,0.0,29.67,WSW,247,1.8,1.8,0,0.00,,,0.00,WUHU21623XXSP,2013-09-10 07:34:00,
2013-09-10 00:39:00,59.9,0.0,29.68,SSW,202,0.0,1.8,0,0.00,,,0.00,WUHU21623XXSP,2013-09-10 07:39:00,
2013-09-10 00:44:00,59.9,0.0,29.68,SW,225,0.0,0.0,0,0.00,,,0.00,WUHU21623XXSP,2013-09-10 07:44:00,
2013-09-10 00:49:00,59.9,0.0,29.68,SSE,157,0.0,0.0,0,0.00,,,0.00,WUHU21623XXSP,2013-09-10 07:49:00,
2013-09-10 00:54:00,59.9,0.0,29.68,South,180,0.0,1.3,0,0.00,,,0.00,WUHU21623XXSP,2013-09-10 07:54:00,
2013-09-10 00:59:00,60.1,0.0,29.68,South,180,0.0,1.3,0,0.00,,,0.00,WUHU21623XXSP,2013-09-10 07:59:00,
2013-09-10 01:04:00,59.9,0.0,29.68,SE,135,0.0,0.0,0,0.00,,,0.00,WUHU21623XXSP,2013-09-10 08:04:00,
2013-09-10 01:09:00,59.9,0.0,29.68,SSW,202,0.0,0.0,0,0.00,,,0.00,WUHU21623XXSP,2013-09-10 08:09:00,
2013-09-10 01:14:00,59.9,0.0,29.68,East,90,1.1,1.1,0,0.00,,,0.00,WUHU21623XXSP,2013-09-10 08:14:00,
2013-09-10 01:19:00,59.9,0.0,29.68,East,90,0.0,1.1,0,0.00,,,0.00,WUHU21623XXSP,2013-09-10 08:19:00,
2013-09-10 01:24:00,59.9,0.0,29.68,WSW,247,0.0,0.0,0,0.00,,,0.00,WUHU21623XXSP,2013-09-10 08:24:00,
2013-09-10 01:29:00,60.1,0.0,29.68,West,270,0.0,0.0,0,0.00,,,0.00,WUHU21623XXSP,2013-09-10 08:29:00,
2013-09-10 01:34:00,60.1,0.0,29.69,South,180,0.0,0.0,0,0.00,,,0.00,WUHU21623XXSP,2013-09-10 08:34:00,
2013-09-10 01:39:00,60.3,0.0,29.68,South,180,0.7,0.7,0,0.00,,,0.00,WUHU21623XXSP,2013-09-10 08:39:00,
2013-09-10 01:44:00,60.4,0.0,29.69,SSW,202,0.0,0.7,0,0.00,,,0.00,WUHU21623XXSP,2013-09-10 08:44:00,
2013-09-10 01:49:00,60.4,0.0,29.69,South,180,0.0,0.0,0,0.00,,,0.00,WUHU21623XXSP,2013-09-10 08:49:00,
2013-09-10 01:54:00,60.4,0.0,29.69,SSE,157,0.0,0.0,0,0.00,,,0.00,WUHU21623XXSP,2013-09-10 08:54:00,
2013-09-10 01:59:00,60.4,0.0,29.69,SSE,157,0.0,0.0,0,0.00,,,0.00,WUHU21623XXSP,2013-09-10 08:59:00,
2013-09-10 02:04:00,60.4,0.0,29.69,SE,135,1.3,1.3,0,0.00,,,0.00,WUHU21623XXSP,2013-09-10 09:04:00,
2013-09-10 02:09:00,60.4,0.0,29.69,East,90,0.0,1.3,0,0.00,,,0.00,WUHU21623XXSP,2013-09-10 09:09:00,
2013-09-10 02:14:00,60.3,0.0,29.69,SSW,202,1.8,1.8,0,0.00,,,0.00,WUHU21623XXSP,2013-09-10 09:14:00,
2013-09-10 02:19:00,60.1,0.0,29.69,SSE,157,0.0,1.8,0,0.00,,,0.00,WUHU21623XXSP,2013-09-10 09:19:00,
2013-09-10 02:24:00,60.1,0.0,29.69,ESE,112,0.0,1.6,0,0.00,,,0.00,WUHU21623XXSP,2013-09-10 09:24:00,
2013-09-10 02:29:00,60.1,0.0,29.69,SE,135,0.0,1.6,0,0.00,,,0.00,WUHU21623XXSP,2013-09-10 09:29:00,
2013-09-10 02:34:00,59.9,0.0,29.70,SSE,157,0.0,0.0,0,0.00,,,0.00,WUHU21623XXSP,2013-09-10 09:34:00,
2013-09-10 02:39:00,59.9,0.0,29.70,SSE,157,0.0,0.9,0,0.00,,,0.00,WUHU21623XXSP,2013-09-10 09:39:00,
2013-09-10 02:44:00,59.7,0.0,29.70,East,90,0.0,0.9,0,0.00,,,0.00,WUHU21623XXSP,2013-09-10 09:44:00,
2013-09-10 02:49:00,59.7,0.0,29.70,SE,135,0.0,0.0,0,0.00,,,0.00,WUHU21623XXSP,2013-09-10 09:49:00,
2013-09-10 02:54:00,59.5,0.0,29.69,SSE,157,0.0,0.0,0,0.00,,,0.00,WUHU21623XXSP,2013-09-10 09:54:00,
2013-09-10 02:59:00,59.5,0.0,29.70,WSW,247,0.0,0.0,0,0.00,,,0.00,WUHU21623XXSP,2013-09-10 09:59:00,
2013-09-10 03:04:00,59.7,0.0,29.70,SSW,202,0.0,0.0,0,0.00,,,0.00,WUHU21623XXSP,2013-09-10 10:04:00,
2013-09-10 03:09:00,59.7,0.0,29.70,WSW,247,0.0,0.0,0,0.00,,,0.00,WUHU21623XXSP,2013-09-10 10:09:00,
2013-09-10 03:14:00,59.7,0.0,29.70,SSW,202,0.0,0.0,0,0.00,,,0.00,WUHU21623XXSP,2013-09-10 10:14:00,
2013-09-10 03:19:00,59.7,0.0,29.70,West,270,0.0,0.0,0,0.00,,,0.00,WUHU21623XXSP,2013-09-10 10:19:00,
2013-09-10 03:24:00,59.9,0.0,29.69,SSW,202,0.0,0.0,0,0.00,,,0.00,WUHU21623XXSP,2013-09-10 10:24:00,
2013-09-10 03:29:00,59.9,0.0,29.69,SSE,157,0.0,0.0,0,0.00,,,0.00,WUHU21623XXSP,2013-09-10 10:29:00,
2013-09-10 03:34:00,59.9,0.0,29.70,South,180,1.1,1.1,0,0.00,,,0.00,WUHU21623XXSP,2013-09-10 10:34:00,
2013-09-10 03:39:00,60.1,0.0,29.70,SE,135,0.0,1.1,0,0.00,,,0.00,WUHU21623XXSP,2013-09-10 10:39:00,
2013-09-10 03:44:00,59.9,0.0,29.69,South,180,0.7,0.7,0,0.00,,,0.00,WUHU21623XXSP,2013-09-10 10:44:00,
2013-09-10 03:49:00,59.9,0.0,29.69,ESE,112,0.0,0.7,0,0.00,,,0.00,WUHU21623XXSP,2013-09-10 10:49:00,
2013-09-10 03:54:00,60.1,0.0,29.70,West,270,0.0,0.0,0,0.00,,,0.00,WUHU21623XXSP,2013-09-10 10:54:00,
2013-09-10 03:59:00,60.1,0.0,29.70,WNW,292,0.0,0.0,0,0.00,,,0.00,WUHU21623XXSP,2013-09-10 10:59:00,
2013-09-10 04:04:00,60.1,0.0,29.70,SW,225,0.0,0.0,0,0.00,,,0.00,WUHU21623XXSP,2013-09-10 11:04:00,
2013-09-10 04:09:00,60.1,0.0,29.70,WNW,292,0.0,0.0,0,0.00,,,0.00,WUHU21623XXSP,2013-09-10 11:09:00,
2013-09-10 04:14:00,60.1,0.0,29.71,WNW,292,0.0,0.0,0,0.00,,,0.00,WUHU21623XXSP,2013-09-10 11:14:00,
2013-09-10 04:19:00,60.1,0.0,29.70,North,0,0.0,0.0,0,0.00,,,0.00,WUHU21623XXSP,2013-09-10 11:19:00,
2013-09-10 04:24:00,59.9,0.0,29.70,WNW,292,0.0,0.0,0,0.00,,,0.00,WUHU21623XXSP,2013-09-10 11:24:00,
2013-09-10 04:29:00,59.9,0.0,29.71,South,180,0.0,0.0,0,0.00,,,0.00,WUHU21623XXSP,2013-09-10 11:29:00,
2013-09-10 04:34:00,60.1,0.0,29.71,East,90,0.0,1.1,0,0.00,,,0.00,WUHU21623XXSP,2013-09-10 11:34:00,
2013-09-10 04:39:00,60.1,0.0,29.70,ESE,112,0.0,1.1,0,0.00,,,0.00,WUHU21623XXSP,2013-09-10 11:39:00,
2013-09-10 04:44:00,59.9,0.0,29.70,NNW,337,0.0,0.0,0,0.00,,,0.00,WUHU21623XXSP,2013-09-10 11:44:00,
2013-09-10 04:49:00,59.9,0.0,29.70,WNW,292,0.0,0.0,0,0.00,,,0.00,WUHU21623XXSP,2013-09-10 11:49:00,
2013-09-10 04:54:00,59.9,0.0,29.70,WNW,292,0.0,0.0,0,0.00,,,0.00,WUHU21623XXSP,2013-09-10 11:54:00,
2013-09-10 04:59:00,59.9,0.0,29.71,SE,135,0.0,0.0,0,0.00,,,0.00,WUHU21623XXSP,2013-09-10 11:59:00,
2013-09-10 05:04:00,60.1,0.0,29.70,SSW,202,0.0,0.0,0,0.00,,,0.00,WUHU21623XXSP,2013-09-10 12:04:00,
2013-09-10 05:09:00,60.1,0.0,29.70,SSE,157,0.0,0.0,0,0.00,,,0.00,WUHU21623XXSP,2013-09-10 12:09:00,
2013-09-10 05:14:00,60.1,0.0,29.71,WSW,247,0.0,0.0,0,0.00,,,0.00,WUHU21623XXSP,2013-09-10 12:14:00,
2013-09-10 05:19:00,60.1,0.0,29.71,SSW,202,0.0,0.0,0,0.00,,,0.00,WUHU21623XXSP,2013-09-10 12:19:00,
2013-09-10 05:24:00,60.1,0.0,29.71,SSW,202,0.0,0.0,0,0.00,,,0.00,WUHU21623XXSP,2013-09-10 12:24:00,
2013-09-10 05:29:00,60.1,0.0,29.71,WNW,292,0.0,0.0,0,0.00,,,0.00,WUHU21623XXSP,2013-09-10 12:29:00,
2013-09-10 05:34:00,60.1,0.0,29.71,SE,135,0.0,0.0,0,0.00,,,0.00,WUHU21623XXSP,2013-09-10 12:34:00,
2013-09-10 05:39:00,60.3,0.0,29.71,SE,135,0.0,0.0,0,0.00,,,0.00,WUHU21623XXSP,2013-09-10 12:39:00,
2013-09-10 05:44:00,60.3,0.0,29.71,NW,315,0.0,0.0,0,0.00,,,0.00,WUHU21623XXSP,2013-09-10 12:44:00,
2013-09-10 05:49:00,60.3,0.0,29.72,East,90,0.0,0.0,0,0.00,,,0.00,WUHU21623XXSP,2013-09-10 12:49:00,
2013-09-10 05:54:00,60.3,0.0,29.71,North,0,0.0,0.0,0,0.00,,,0.00,WUHU21623XXSP,2013-09-10 12:54:00,
2013-09-10 05:59:00,60.4,0.0,29.71,NNW,337,0.0,0.0,0,0.00,,,0.00,WUHU21623XXSP,2013-09-10 12:59:00,
2013-09-10 06:04:00,60.3,0.0,29.71,NNW,337,0.0,0.0,0,0.00,,,0.00,WUHU21623XXSP,2013-09-10 13:04:00,
2013-09-10 06:09:00,60.1,0.0,29.72,NNW,337,0.0,0.0,0,0.00,,,0.00,WUHU21623XXSP,2013-09-10 13:09:00,
2013-09-10 06:14:00,60.3,0.0,29.71,SW,225,0.0,0.0,0,0.00,,,0.00,WUHU21623XXSP,2013-09-10 13:14:00,
2013-09-10 06:19:00,60.3,0.0,29.72,WSW,247,0.0,0.0,0,0.00,,,0.00,WUHU21623XXSP,2013-09-10 13:19:00,
2013-09-10 06:24:00,60.4,0.0,29.72,SSE,157,0.0,0.0,0,0.00,,,0.00,WUHU21623XXSP,2013-09-10 13:24:00,
2013-09-10 06:29:00,60.3,0.0,29.72,SE,135,0.0,0.0,0,0.00,,,0.00,WUHU21623XXSP,2013-09-10 13:29:00,
2013-09-10 06:34:00,60.3,0.0,29.72,WNW,292,0.0,0.0,0,0.00,,,0.00,WUHU21623XXSP,2013-09-10 13:34:00,
2013-09-10 06:39:00,60.3,0.0,29.72,SSE,157,0.0,0.0,0,0.00,,,0.00,WUHU21623XXSP,2013-09-10 13:39:00,
2013-09-10 06:44:00,60.3,0.0,29.72,NNW,337,0.0,0.0,0,0.00,,,0.00,WUHU21623XXSP,2013-09-10 13:44:00,
2013-09-10 06:49:00,60.1,0.0,29.72,NW,315,0.0,0.0,0,0.00,,,0.00,WUHU21623XXSP,2013-09-10 13:49:00,
2013-09-10 06:54:00,60.1,0.0,29.72,SSW,202,0.0,0.0,0,0.00,,,0.00,WUHU21623XXSP,2013-09-10 13:54:00,
2013-09-10 06:59:00,60.1,0.0,29.73,SSE,157,0.0,0.0,0,0.00,,,0.00,WUHU21623XXSP,2013-09-10 13:59:00,
2013-09-10 07:04:00,60.1,0.0,29.73,NNW,337,0.0,0.0,0,0.00,,,0.00,WUHU21623XXSP,2013-09-10 14:04:00,
2013-09-10 07:09:00,60.1,0.0,29.73,WNW,292,0.0,0.0,0,0.00,,,0.00,WUHU21623XXSP,2013-09-10 14:09:00,
2013-09-10 07:14:00,60.1,0.0,29.73,North,0,0.0,0.0,0,0.00,,,0.00,WUHU21623XXSP,2013-09-10 14:14:00,
2013-09-10 07:19:00,60.1,0.0,29.73,North,0,0.0,0.0,0,0.00,,,0.00,WUHU21623XXSP,2013-09-10 14:19:00,
2013-09-10 07:24:00,60.1,0.0,29.74,WNW,292,0.0,0.0,0,0.00,,,0.00,WUHU21623XXSP,2013-09-10 14:24:00,
2013-09-10 07:29:00,60.3,0.0,29.74,WNW,292,0.0,0.0,0,0.00,,,0.00,WUHU21623XXSP,2013-09-10 14:29:00,
2013-09-10 07:34:00,60.1,0.0,29.74,SSW,202,0.0,0.0,0,0.00,,,0.00,WUHU21623XXSP,2013-09-10 14:34:00,
2013-09-10 07:39:00,60.1,0.0,29.74,SSW,202,0.0,0.0,0,0.00,,,0.00,WUHU21623XXSP,2013-09-10 14:39:00,
2013-09-10 07:44:00,60.1,0.0,29.74,WSW,247,0.0,0.0,0,0.00,,,0.00,WUHU21623XXSP,2013-09-10 14:44:00,
2013-09-10 07:49:00,60.3,0.0,29.75,WSW,247,0.0,0.0,0,0.00,,,0.00,WUHU21623XXSP,2013-09-10 14:49:00,
2013-09-10 07:54:00,60.4,0.0,29.74,WSW,247,0.0,0.0,0,0.00,,,0.00,WUHU21623XXSP,2013-09-10 14:54:00,
2013-09-10 07:59:00,60.4,0.0,29.74,WSW,247,0.0,0.0,0,0.00,,,0.00,WUHU21623XXSP,2013-09-10 14:59:00,
2013-09-10 08:04:00,60.4,0.0,29.74,WNW,292,0.0,0.0,0,0.00,,,0.00,WUHU21623XXSP,2013-09-10 15:04:00,
2013-09-10 08:09:00,60.4,0.0,29.75,WNW,292,0.0,0.0,0,0.00,,,0.00,WUHU21623XXSP,2013-09-10 15:09:00,
2013-09-10 08:14:00,60.4,0.0,29.75,WSW,247,0.0,0.0,0,0.00,,,0.00,WUHU21623XXSP,2013-09-10 15:14:00,
2013-09-10 08:19:00,60.4,0.0,29.75,WNW,292,0.0,0.0,0,0.00,,,0.00,WUHU21623XXSP,2013-09-10 15:19:00,
2013-09-10 08:24:00,60.4,0.0,29.75,WNW,292,0.0,0.0,0,0.00,,,0.00,WUHU21623XXSP,2013-09-10 15:24:00,
2013-09-10 08:29:00,60.4,0.0,29.75,WNW,292,0.0,0.0,0,0.00,,,0.00,WUHU21623XXSP,2013-09-10 15:29:00,
2013-09-10 08:34:00,60.4,0.0,29.75,South,180,0.0,0.0,0,0.00,,,0.00,WUHU21623XXSP,2013-09-10 15:34:00,
2013-09-10 08:39:00,60.4,0.0,29.75,South,180,0.0,0.0,0,0.00,,,0.00,WUHU21623XXSP,2013-09-10 15:39:00,
2013-09-10 08:44:00,60.6,0.0,29.75,West,270,0.0,0.0,0,0.00,,,0.00,WUHU21623XXSP,2013-09-10 15:44:00,
2013-09-10 08:49:00,60.6,0.0,29.75,WNW,292,0.0,0.0,0,0.00,,,0.00,WUHU21623XXSP,2013-09-10 15:49:00,
2013-09-10 08:54:00,60.6,0.0,29.75,WSW,247,0.0,0.0,0,0.00,,,0.00,WUHU21623XXSP,2013-09-10 15:54:00,
2013-09-10 08:59:00,60.6,0.0,29.75,SE,135,0.0,0.0,0,0.00,,,0.00,WUHU21623XXSP,2013-09-10 15:59:00,
2013-09-10 09:04:00,61.0,0.0,29.75,NW,315,0.0,0.0,0,0.00,,,0.00,WUHU21623XXSP,2013-09-10 16:04:00,
2013-09-10 09:09:00,61.0,0.0,29.75,NW,315,0.0,0.0,0,0.00,,,0.00,WUHU21623XXSP,2013-09-10 16:09:00,
2013-09-10 09:14:00,61.0,0.0,29.76,WNW,292,0.0,0.0,0,0.00,,,0.00,WUHU21623XXSP,2013-09-10 16:14:00,
2013-09-10 09:19:00,61.0,0.0,29.76,NNW,337,0.0,0.0,0,0.00,,,0.00,WUHU21623XXSP,2013-09-10 16:19:00,
2013-09-10 09:24:00,61.2,0.0,29.76,NNW,337,0.0,0.0,0,0.00,,,0.00,WUHU21623XXSP,2013-09-10 16:24:00,
2013-09-10 09:29:00,61.3,0.0,29.76,South,180,0.0,0.0,0,0.00,,,0.00,WUHU21623XXSP,2013-09-10 16:29:00,
2013-09-10 09:34:00,61.5,0.0,29.76,South,180,0.0,0.0,0,0.00,,,0.00,WUHU21623XXSP,2013-09-10 16:34:00,
2013-09-10 09:39:00,61.5,0.0,29.76,South,180,0.0,0.0,0,0.00,,,0.00,WUHU21623XXSP,2013-09-10 16:39:00,
2013-09-10 09:44:00,61.7,0.0,29.76,NNW,337,0.0,0.0,0,0.00,,,0.00,WUHU21623XXSP,2013-09-10 16:44:00,
2013-09-10 09:49:00,61.9,0.0,29.76,NW,315,0.0,0.0,0,0.00,,,0.00,WUHU21623XXSP,2013-09-10 16:49:00,
2013-09-10 09:54:00,62.1,0.0,29.76,WNW,292,0.0,0.0,0,0.00,,,0.00,WUHU21623XXSP,2013-09-10 16:54:00,
2013-09-10 09:59:00,62.2,0.0,29.76,NW,315,0.0,0.0,0,0.00,,,0.00,WUHU21623XXSP,2013-09-10 16:59:00,
2013-09-10 10:04:00,62.2,0.0,29.76,West,270,0.0,0.0,0,0.00,,,0.00,WUHU21623XXSP,2013-09-10 17:04:00,
2013-09-10 10:09:00,62.4,0.0,29.76,WNW,292,0.0,0.0,0,0.00,,,0.00,WUHU21623XXSP,2013-09-10 17:09:00,
2013-09-10 10:14:00,62.4,0.0,29.77,SW,225,0.0,0.0,0,0.00,,,0.00,WUHU21623XXSP,2013-09-10 17:14:00,
2013-09-10 10:19:00,62.6,0.0,29.76,WNW,292,0.0,1.3,0,0.00,,,0.00,WUHU21623XXSP,2013-09-10 17:19:00,
2013-09-10 10:24:00,62.6,0.0,29.76,West,270,0.0,1.3,0,0.00,,,0.00,WUHU21623XXSP,2013-09-10 17:24:00,
2013-09-10 10:29:00,62.8,0.0,29.76,SW,225,0.0,0.0,0,0.00,,,0.00,WUHU21623XXSP,2013-09-10 17:29:00,
2013-09-10 10:34:00,62.8,0.0,29.77,WNW,292,0.0,0.0,0,0.00,,,0.00,WUHU21623XXSP,2013-09-10 17:34:00,
2013-09-10 10:39:00,63.1,0.0,29.77,West,270,0.0,0.0,0,0.00,,,0.00,WUHU21623XXSP,2013-09-10 17:39:00,
2013-09-10 10:44:00,63.1,0.0,29.77,WNW,292,0.0,0.0,0,0.00,,,0.00,WUHU21623XXSP,2013-09-10 17:44:00,
2013-09-10 10:49:00,63.3,0.0,29.77,West,270,3.1,4.0,0,0.00,,,0.00,WUHU21623XXSP,2013-09-10 17:49:00,
2013-09-10 10:54:00,63.3,0.0,29.77,SSW,202,2.0,4.0,0,0.00,,,0.00,WUHU21623XXSP,2013-09-10 17:54:00,
2013-09-10 10:59:00,63.5,0.0,29.77,West,270,1.6,2.0,0,0.00,,,0.00,WUHU21623XXSP,2013-09-10 17:59:00,
2013-09-10 11:04:00,63.5,0.0,29.77,ESE,112,0.0,1.6,0,0.00,,,0.00,WUHU21623XXSP,2013-09-10 18:04:00,
2013-09-10 11:10:00,63.5,0.0,29.77,South,180,0.0,1.6,0,0.00,,,0.00,WUHU21623XXSP,2013-09-10 18:10:00,
2013-09-10 11:15:00,63.7,0.0,29.77,SW,225,0.0,0.0,0,0.00,,,0.00,WUHU21623XXSP,2013-09-10 18:15:00,
2013-09-10 11:20:00,63.7,0.0,29.77,NW,315,0.0,0.0,0,0.00,,,0.00,WUHU21623XXSP,2013-09-10 18:20:00,
2013-09-10 11:25:00,64.0,0.0,29.77,SSE,157,0.0,0.0,0,0.00,,,0.00,WUHU21623XXSP,2013-09-10 18:25:00,
2013-09-10 11:30:00,64.2,0.0,29.77,West,270,0.0,0.9,0,0.00,,,0.00,WUHU21623XXSP,2013-09-10 18:30:00,
2013-09-10 11:35:00,64.2,0.0,29.77,North,0,0.0,0.9,0,0.00,,,0.00,WUHU21623XXSP,2013-09-10 18:35:00,
2013-09-10 11:40:00,64.6,0.0,29.77,WNW,292,0.0,0.0,0,0.00,,,0.00,WUHU21623XXSP,2013-09-10 18:40:00,
2013-09-10 11:45:00,64.9,0.0,29.77,ESE,112,0.0,0.0,0,0.00,,,0.00,WUHU21623XXSP,2013-09-10 18:45:00,
2013-09-10 11:50:00,65.1,0.0,29.77,SE,135,0.0,0.7,0,0.00,,,0.00,WUHU21623XXSP,2013-09-10 18:50:00,
2013-09-10 11:55:00,65.3,0.0,29.78,West,270,1.8,2.2,0,0.00,,,0.00,WUHU21623XXSP,2013-09-10 18:55:00,
2013-09-10 12:00:00,65.5,0.0,29.77,SW,225,0.7,2.2,0,0.00,,,0.00,WUHU21623XXSP,2013-09-10 19:00:00,
2013-09-10 12:05:00,65.8,0.0,29.77,SW,225,0.7,0.7,0,0.00,,,0.00,WUHU21623XXSP,2013-09-10 19:05:00,
2013-09-10 12:10:00,66.0,0.0,29.77,SW,225,0.7,0.7,0,0.00,,,0.00,WUHU21623XXSP,2013-09-10 19:10:00,
2013-09-10 12:15:00,66.7,0.0,29.77,West,270,1.3,1.6,0,0.00,,,0.00,WUHU21623XXSP,2013-09-10 19:15:00,
2013-09-10 12:20:00,66.9,0.0,29.77,WSW,247,0.0,1.6,0,0.00,,,0.00,WUHU21623XXSP,2013-09-10 19:20:00,
2013-09-10 12:25:00,67.3,0.0,29.77,WNW,292,0.7,0.7,0,0.00,,,0.00,WUHU21623XXSP,2013-09-10 19:25:00,
2013-09-10 12:30:00,67.8,0.0,29.77,WNW,292,0.7,0.7,0,0.00,,,0.00,WUHU21623XXSP,2013-09-10 19:30:00,
2013-09-10 12:35:00,68.2,0.0,29.77,SSW,202,5.1,5.1,0,0.00,,,0.00,WUHU21623XXSP,2013-09-10 19:35:00,
2013-09-10 12:40:00,68.5,0.0,29.77,North,0,3.1,5.1,0,0.00,,,0.00,WUHU21623XXSP,2013-09-10 19:40:00,
2013-09-10 12:45:00,69.1,0.0,29.77,NNW,337,4.0,4.0,0,0.00,,,0.00,WUHU21623XXSP,2013-09-10 19:45:00,
2013-09-10 12:50:00,69.1,0.0,29.77,North,0,5.1,5.1,0,0.00,,,0.00,WUHU21623XXSP,2013-09-10 19:50:00,
2013-09-10 12:55:00,69.3,0.0,29.77,WNW,292,3.8,5.1,0,0.00,,,0.00,WUHU21623XXSP,2013-09-10 19:55:00,
2013-09-10 13:00:00,69.6,0.0,29.77,WNW,292,3.8,3.8,0,0.00,,,0.00,WUHU21623XXSP,2013-09-10 20:00:00,
2013-09-10 13:05:00,70.0,0.0,29.77,WSW,247,2.9,5.6,0,0.00,,,0.00,WUHU21623XXSP,2013-09-10 20:05:00,
2013-09-10 13:10:00,70.3,0.0,29.77,West,270,0.0,5.6,0,0.00,,,0.00,WUHU21623XXSP,2013-09-10 20:10:00,
2013-09-10 13:15:00,70.7,0.0,29.78,NW,315,2.0,4.5,0,0.00,,,0.00,WUHU21623XXSP,2013-09-10 20:15:00,
2013-09-10 13:20:00,70.9,0.0,29.77,WNW,292,2.0,2.0,0,0.00,,,0.00,WUHU21623XXSP,2013-09-10 20:20:00,
2013-09-10 13:25:00,71.4,0.0,29.77,West,270,0.9,2.0,0,0.00,,,0.00,WUHU21623XXSP,2013-09-10 20:25:00,
2013-09-10 13:30:00,71.8,0.0,29.77,WSW,247,2.9,2.9,0,0.00,,,0.00,WUHU21623XXSP,2013-09-10 20:30:00,
2013-09-10 13:35:00,72.1,0.0,29.77,NW,315,0.0,4.0,0,0.00,,,0.00,WUHU21623XXSP,2013-09-10 20:35:00,
2013-09-10 13:40:00,72.7,0.0,29.77,SW,225,7.6,7.6,0,0.00,,,0.00,WUHU21623XXSP,2013-09-10 20:40:00,
2013-09-10 13:45:00,73.2,0.0,29.77,WNW,292,2.7,7.6,0,0.00,,,0.00,WUHU21623XXSP,2013-09-10 20:45:00,
2013-09-10 13:50:00,73.4,0.0,29.77,NE,45,0.0,7.6,0,0.00,,,0.00,WUHU21623XXSP,2013-09-10 20:50:00,
2013-09-10 13:55:00,73.6,0.0,29.77,NE,45,0.0,3.1,0,0.00,,,0.00,WUHU21623XXSP,2013-09-10 20:55:00,
2013-09-10 14:00:00,73.9,0.0,29.76,West,270,6.3,6.3,0,0.00,,,0.00,WUHU21623XXSP,2013-09-10 21:00:00,
2013-09-10 14:05:00,74.1,0.0,29.76,WNW,292,0.9,6.3,0,0.00,,,0.00,WUHU21623XXSP,2013-09-10 21:05:00,
2013-09-10 14:10:00,74.1,0.0,29.76,WSW,247,4.5,7.8,0,0.00,,,0.00,WUHU21623XXSP,2013-09-10 21:10:00,
2013-09-10 14:15:00,74.3,0.0,29.76,North,0,3.8,7.8,0,0.00,,,0.00,WUHU21623XXSP,2013-09-10 21:15:00,
2013-09-10 14:20:00,74.3,0.0,29.77,WNW,292,5.1,5.8,0,0.00,,,0.00,WUHU21623XXSP,2013-09-10 21:20:00,
2013-09-10 14:25:00,74.5,0.0,29.76,WNW,292,5.1,5.1,0,0.00,,,0.00,WUHU21623XXSP,2013-09-10 21:25:00,
2013-09-10 14:30:00,74.5,0.0,29.77,NNW,337,5.1,5.1,0,0.00,,,0.00,WUHU21623XXSP,2013-09-10 21:30:00,
2013-09-10 14:35:00,74.8,0.0,29.77,WNW,292,2.5,5.1,0,0.00,,,0.00,WUHU21623XXSP,2013-09-10 21:35:00,
2013-09-10 14:40:00,75.0,0.0,29.76,WNW,292,5.1,6.3,0,0.00,,,0.00,WUHU21623XXSP,2013-09-10 21:40:00,
2013-09-10 14:45:00,74.8,0.0,29.76,WNW,292,8.1,8.1,0,0.00,,,0.00,WUHU21623XXSP,2013-09-10 21:45:00,
2013-09-10 14:50:00,74.8,0.0,29.77,North,0,2.7,8.1,0,0.00,,,0.00,WUHU21623XXSP,2013-09-10 21:50:00,
2013-09-10 14:55:00,74.8,0.0,29.77,NNE,22,4.0,10.7,0,0.00,,,0.00,WUHU21623XXSP,2013-09-10 21:55:00,
2013-09-10 15:00:00,74.8,0.0,29.77,WSW,247,1.1,10.7,0,0.00,,,0.00,WUHU21623XXSP,2013-09-10 22:00:00,
2013-09-10 15:05:00,74.8,0.0,29.77,WNW,292,4.0,10.1,0,0.00,,,0.00,WUHU21623XXSP,2013-09-10 22:05:00,
2013-09-10 15:10:00,74.7,0.0,29.77,NW,315,2.5,7.6,0,0.00,,,0.00,WUHU21623XXSP,2013-09-10 22:10:00,
2013-09-10 15:15:00,74.3,0.0,29.77,West,270,3.6,9.4,0,0.00,,,0.00,WUHU21623XXSP,2013-09-10 22:15:00,
2013-09-10 15:20:00,74.3,0.0,29.77,WNW,292,10.3,10.3,0,0.00,,,0.00,WUHU21623XXSP,2013-09-10 22:20:00,
2013-09-10 15:25:00,73.9,0.0,29.78,NNE,22,2.9,10.3,0,0.00,,,0.00,WUHU21623XXSP,2013-09-10 22:25:00,
2013-09-10 15:30:00,73.9,0.0,29.77,WNW,292,4.7,10.3,0,0.00,,,0.00,WUHU21623XXSP,2013-09-10 22:30:00,
2013-09-10 15:40:00,73.2,0.0,29.78,NW,315,4.5,7.4,0,0.00,,,0.00,WUHU21623XXSP,2013-09-10 22:40:00,
2013-09-10 15:45:00,73.0,0.0,29.78,SW,225,2.0,9.2,0,0.00,,,0.00,WUHU21623XXSP,2013-09-10 22:45:00,
2013-09-10 15:50:00,72.7,0.0,29.78,North,0,5.8,9.2,0,0.00,,,0.00,WUHU21623XXSP,2013-09-10 22:50:00,
2013-09-10 15:55:00,72.5,0.0,29.78,SSE,157,1.8,5.8,0,0.00,,,0.00,WUHU21623XXSP,2013-09-10 22:55:00,
2013-09-10 16:00:00,72.3,0.0,29.77,WNW,292,1.6,7.2,0,0.00,,,0.00,WUHU21623XXSP,2013-09-10 23:00:00,
2013-09-10 16:05:00,72.3,0.0,29.77,WSW,247,8.3,8.3,0,0.00,,,0.00,WUHU21623XXSP,2013-09-10 23:05:00,
2013-09-10 16:10:00,71.8,0.0,29.77,WNW,292,7.4,8.3,0,0.00,,,0.00,WUHU21623XXSP,2013-09-10 23:10:00,
2013-09-10 16:15:00,71.4,0.0,29.78,WNW,292,4.3,7.4,0,0.00,,,0.00,WUHU21623XXSP,2013-09-10 23:15:00,
2013-09-10 16:20:00,71.2,0.0,29.78,SSW,202,4.5,5.4,0,0.00,,,0.00,WUHU21623XXSP,2013-09-10 23:20:00,
2013-09-10 16:25:00,71.1,0.0,29.77,SW,225,0.0,4.7,0,0.00,,,0.00,WUHU21623XXSP,2013-09-10 23:25:00,
2013-09-10 16:30:00,70.9,0.0,29.78,WSW,247,6.9,7.4,0,0.00,,,0.00,WUHU21623XXSP,2013-09-10 23:30:00,
2013-09-10 16:35:00,70.9,0.0,29.78,WSW,247,3.4,7.4,0,0.00,,,0.00,WUHU21623XXSP,2013-09-10 23:35:00,
2013-09-10 16:40:00,70.7,0.0,29.78,SW,225,5.4,9.2,0,0.00,,,0.00,WUHU21623XXSP,2013-09-10 23:40:00,
2013-09-10 16:45:00,70.7,0.0,29.77,WSW,247,3.6,9.2,0,0.00,,,0.00,WUHU21623XXSP,2013-09-10 23:45:00,
2013-09-10 16:50:00,70.5,0.0,29.78,WSW,247,3.1,3.6,0,0.00,,,0.00,WUHU21623XXSP,2013-09-10 23:50:00,
2013-09-10 16:55:00,70.3,0.0,29.78,West,270,0.0,3.6,0,0.00,,,0.00,WUHU21623XXSP,2013-09-10 23:55:00,
2013-09-10 17:00:00,70.3,0.0,29.78,SSW,202,0.9,3.8,0,0.00,,,0.00,WUHU21623XXSP,2013-09-11 00:00:00,
2013-09-10 17:05:00,70.0,0.0,29.78,NW,315,5.6,5.6,0,0.00,,,0.00,WUHU21623XXSP,2013-09-11 00:05:00,
2013-09-10 17:10:00,69.4,0.0,29.78,NW,315,0.0,6.0,0,0.00,,,0.00,WUHU21623XXSP,2013-09-11 00:10:00,
2013-09-10 17:15:00,69.3,0.0,29.78,West,270,0.0,6.0,0,0.00,,,0.00,WUHU21623XXSP,2013-09-11 00:15:00,
2013-09-10 17:20:00,69.1,0.0,29.78,West,270,0.0,3.1,0,0.00,,,0.00,WUHU21623XXSP,2013-09-11 00:20:00,
2013-09-10 17:25:00,68.7,0.0,29.78,WNW,292,0.9,3.1,0,0.00,,,0.00,WUHU21623XXSP,2013-09-11 00:25:00,
2013-09-10 17:30:00,68.5,0.0,29.78,SW,225,2.2,4.7,0,0.00,,,0.00,WUHU21623XXSP,2013-09-11 00:30:00,
2013-09-10 17:35:00,68.2,0.0,29.78,SW,225,2.2,4.7,0,0.00,,,0.00,WUHU21623XXSP,2013-09-11 00:35:00,
2013-09-10 17:40:00,67.8,0.0,29.78,NNW,337,1.1,5.6,0,0.00,,,0.00,WUHU21623XXSP,2013-09-11 00:40:00,
2013-09-10 17:45:00,67.6,0.0,29.78,West,270,2.9,5.6,0,0.00,,,0.00,WUHU21623XXSP,2013-09-11 00:45:00,
2013-09-10 17:50:00,67.6,0.0,29.78,WSW,247,5.1,5.1,0,0.00,,,0.00,WUHU21623XXSP,2013-09-11 00:50:00,
2013-09-10 17:55:00,67.6,0.0,29.78,West,270,3.4,5.1,0,0.00,,,0.00,WUHU21623XXSP,2013-09-11 00:55:00,
2013-09-10 18:00:00,67.5,0.0,29.78,SW,225,0.0,4.5,0,0.00,,,0.00,WUHU21623XXSP,2013-09-11 01:00:00,
2013-09-10 18:05:00,67.3,0.0,29.78,NW,315,2.9,2.9,0,0.00,,,0.00,WUHU21623XXSP,2013-09-11 01:05:00,
2013-09-10 18:10:00,66.9,0.0,29.78,SSW,202,2.2,2.9,0,0.00,,,0.00,WUHU21623XXSP,2013-09-11 01:10:00,
2013-09-10 18:15:00,66.9,0.0,29.78,WSW,247,0.7,4.9,0,0.00,,,0.00,WUHU21623XXSP,2013-09-11 01:15:00,
2013-09-10 18:20:00,66.7,0.0,29.78,SW,225,2.0,4.9,0,0.00,,,0.00,WUHU21623XXSP,2013-09-11 01:20:00,
2013-09-10 18:25:00,66.7,0.0,29.78,WNW,292,4.3,4.5,0,0.00,,,0.00,WUHU21623XXSP,2013-09-11 01:25:00,
2013-09-10 18:30:00,66.4,0.0,29.78,WNW,292,9.2,9.2,0,0.00,,,0.00,WUHU21623XXSP,2013-09-11 01:30:00,
2013-09-10 18:35:00,66.2,0.0,29.78,WSW,247,3.1,9.2,0,0.00,,,0.00,WUHU21623XXSP,2013-09-11 01:35:00,
2013-09-10 18:40:00,66.0,0.0,29.78,WSW,247,2.9,9.2,0,0.00,,,0.00,WUHU21623XXSP,2013-09-11 01:40:00,
2013-09-10 18:45:00,66.0,0.0,29.78,SW,225,0.0,3.1,0,0.00,,,0.00,WUHU21623XXSP,2013-09-11 01:45:00,
2013-09-10 18:50:00,66.0,0.0,29.78,South,180,1.1,1.3,0,0.00,,,0.00,WUHU21623XXSP,2013-09-11 01:50:00,
2013-09-10 18:55:00,66.0,0.0,29.78,SW,225,0.0,2.7,0,0.00,,,0.00,WUHU21623XXSP,2013-09-11 01:55:00,
2013-09-10 19:00:00,66.0,0.0,29.78,WSW,247,0.0,2.7,0,0.00,,,0.00,WUHU21623XXSP,2013-09-11 02:00:00,
2013-09-10 19:05:00,66.0,0.0,29.79,SE,135,1.6,2.0,0,0.00,,,0.00,WUHU21623XXSP,2013-09-11 02:05:00,
2013-09-10 19:10:00,65.8,0.0,29.79,WSW,247,0.0,2.0,0,0.00,,,0.00,WUHU21623XXSP,2013-09-11 02:10:00,
2013-09-10 19:15:00,65.8,0.0,29.79,North,0,0.0,1.6,0,0.00,,,0.00,WUHU21623XXSP,2013-09-11 02:15:00,
2013-09-10 19:20:00,65.8,0.0,29.79,WSW,247,0.9,0.9,0,0.00,,,0.00,WUHU21623XXSP,2013-09-11 02:20:00,
2013-09-10 19:25:00,65.7,0.0,29.79,NW,315,4.0,4.0,0,0.00,,,0.00,WUHU21623XXSP,2013-09-11 02:25:00,
2013-09-10 19:30:00,65.5,0.0,29.78,South,180,1.6,4.0,0,0.00,,,0.00,WUHU21623XXSP,2013-09-11 02:30:00,
2013-09-10 19:35:00,65.5,0.0,29.79,NW,315,1.1,2.0,0,0.00,,,0.00,WUHU21623XXSP,2013-09-11 02:35:00,
2013-09-10 19:40:00,65.5,0.0,29.79,South,180,0.0,1.1,0,0.00,,,0.00,WUHU21623XXSP,2013-09-11 02:40:00,
2013-09-10 19:45:00,65.3,0.0,29.79,NW,315,3.1,3.1,0,0.00,,,0.00,WUHU21623XXSP,2013-09-11 02:45:00,
2013-09-10 19:50:00,65.1,0.0,29.80,WSW,247,0.0,3.1,0,0.00,,,0.00,WUHU21623XXSP,2013-09-11 02:50:00,
2013-09-10 19:55:00,65.1,0.0,29.80,West,270,0.0,3.1,0,0.00,,,0.00,WUHU21623XXSP,2013-09-11 02:55:00,
2013-09-10 20:00:00,65.1,0.0,29.80,West,270,0.0,0.0,0,0.00,,,0.00,WUHU21623XXSP,2013-09-11 03:00:00,
2013-09-10 20:05:00,65.1,0.0,29.80,South,180,0.0,0.0,0,0.00,,,0.00,WUHU21623XXSP,2013-09-11 03:05:00,
2013-09-10 20:10:00,65.1,0.0,29.80,WNW,292,0.0,0.0,0,0.00,,,0.00,WUHU21623XXSP,2013-09-11 03:10:00,
2013-09-10 20:15:00,65.1,0.0,29.80,WNW,292,0.0,0.0,0,0.00,,,0.00,WUHU21623XXSP,2013-09-11 03:15:00,
2013-09-10 20:20:00,64.9,0.0,29.80,ESE,112,0.0,0.0,0,0.00,,,0.00,WUHU21623XXSP,2013-09-11 03:20:00,
2013-09-10 20:25:00,64.9,0.0,29.80,WNW,292,0.0,0.0,0,0.00,,,0.00,WUHU21623XXSP,2013-09-11 03:25:00,
2013-09-10 20:30:00,64.9,0.0,29.80,South,180,0.0,1.6,0,0.00,,,0.00,WUHU21623XXSP,2013-09-11 03:30:00,
2013-09-10 20:35:00,64.9,0.0,29.80,West,270,0.0,1.6,0,0.00,,,0.00,WUHU21623XXSP,2013-09-11 03:35:00,
2013-09-10 20:40:00,64.9,0.0,29.80,WNW,292,1.6,1.6,0,0.00,,,0.00,WUHU21623XXSP,2013-09-11 03:40:00,
2013-09-10 20:45:00,64.8,0.0,29.81,SW,225,2.2,2.2,0,0.00,,,0.00,WUHU21623XXSP,2013-09-11 03:45:00,
2013-09-10 20:50:00,64.8,0.0,29.81,SSW,202,0.0,2.2,0,0.00,,,0.00,WUHU21623XXSP,2013-09-11 03:50:00,
2013-09-10 20:55:00,64.8,0.0,29.81,West,270,0.0,0.9,0,0.00,,,0.00,WUHU21623XXSP,2013-09-11 03:55:00,
2013-09-10 21:00:00,64.8,0.0,29.81,WSW,247,0.0,0.9,0,0.00,,,0.00,WUHU21623XXSP,2013-09-11 04:00:00,
2013-09-10 21:05:00,64.6,0.0,29.82,WSW,247,0.0,0.0,0,0.00,,,0.00,WUHU21623XXSP,2013-09-11 04:05:00,
2013-09-10 21:10:00,64.8,0.0,29.82,SSW,202,0.0,0.0,0,0.00,,,0.00,WUHU21623XXSP,2013-09-11 04:10:00,
2013-09-10 21:15:00,64.6,0.0,29.82,SSW,202,0.0,1.6,0,0.00,,,0.00,WUHU21623XXSP,2013-09-11 04:15:00,
2013-09-10 21:20:00,64.6,0.0,29.83,SW,225,1.1,1.6,0,0.00,,,0.00,WUHU21623XXSP,2013-09-11 04:20:00,
2013-09-10 21:25:00,64.6,0.0,29.82,South,180,0.0,1.6,0,0.00,,,0.00,WUHU21623XXSP,2013-09-11 04:25:00,
2013-09-10 21:30:00,64.6,0.0,29.82,WNW,292,0.0,1.6,0,0.00,,,0.00,WUHU21623XXSP,2013-09-11 04:30:00,
2013-09-10 21:35:00,64.6,0.0,29.83,WNW,292,0.0,0.0,0,0.00,,,0.00,WUHU21623XXSP,2013-09-11 04:35:00,
2013-09-10 21:40:00,64.2,0.0,29.83,SSW,202,0.0,0.0,0,0.00,,,0.00,WUHU21623XXSP,2013-09-11 04:40:00,
2013-09-10 21:45:00,64.2,0.0,29.83,South,180,2.5,2.5,0,0.00,,,0.00,WUHU21623XXSP,2013-09-11 04:45:00,
2013-09-10 21:51:00,64.2,0.0,29.83,South,180,0.0,2.5,0,0.00,,,0.00,WUHU21623XXSP,2013-09-11 04:51:00,
2013-09-10 21:56:00,64.2,0.0,29.83,South,180,0.0,0.0,0,0.00,,,0.00,WUHU21623XXSP,2013-09-11 04:56:00,
2013-09-10 22:01:00,64.2,0.0,29.83,SSW,202,0.0,0.0,0,0.00,,,0.00,WUHU21623XXSP,2013-09-11 05:01:00,
2013-09-10 22:06:00,64.2,0.0,29.83,NW,315,0.0,0.0,0,0.00,,,0.00,WUHU21623XXSP,2013-09-11 05:06:00,
2013-09-10 22:11:00,64.2,0.0,29.83,NNW,337,0.0,0.0,0,0.00,,,0.00,WUHU21623XXSP,2013-09-11 05:11:00,
2013-09-10 22:16:00,64.2,0.0,29.83,NNW,337,0.0,0.0,0,0.00,,,0.00,WUHU21623XXSP,2013-09-11 05:16:00,
2013-09-10 22:21:00,64.2,0.0,29.83,WSW,247,0.0,0.0,0,0.00,,,0.00,WUHU21623XXSP,2013-09-11 05:21:00,
2013-09-10 22:26:00,64.2,0.0,29.83,SW,225,0.0,0.0,0,0.00,,,0.00,WUHU21623XXSP,2013-09-11 05:26:00,
2013-09-10 22:31:00,64.2,0.0,29.83,SW,225,0.0,0.0,0,0.00,,,0.00,WUHU21623XXSP,2013-09-11 05:31:00,
2013-09-10 22:36:00,64.2,0.0,29.84,SSE,157,0.0,0.0,0,0.00,,,0.00,WUHU21623XXSP,2013-09-11 05:36:00,
2013-09-10 22:41:00,64.2,0.0,29.84,South,180,0.0,0.0,0,0.00,,,0.00,WUHU21623XXSP,2013-09-11 05:41:00,
2013-09-10 22:46:00,64.2,0.0,29.84,South,180,0.0,0.0,0,0.00,,,0.00,WUHU21623XXSP,2013-09-11 05:46:00,
2013-09-10 22:51:00,64.2,0.0,29.84,South,180,0.0,0.0,0,0.00,,,0.00,WUHU21623XXSP,2013-09-11 05:51:00,
2013-09-10 22:56:00,64.2,0.0,29.84,WNW,292,0.0,0.0,0,0.00,,,0.00,WUHU21623XXSP,2013-09-11 05:56:00,
2013-09-10 23:01:00,64.0,0.0,29.84,West,270,0.0,0.0,0,0.00,,,0.00,WUHU21623XXSP,2013-09-11 06:01:00,
2013-09-10 23:06:00,64.0,0.0,29.84,SW,225,0.0,0.0,0,0.00,,,0.00,WUHU21623XXSP,2013-09-11 06:06:00,
2013-09-10 23:11:00,64.0,0.0,29.84,WNW,292,0.0,0.0,0,0.00,,,0.00,WUHU21623XXSP,2013-09-11 06:11:00,
2013-09-10 23:16:00,64.0,0.0,29.84,WNW,292,0.0,0.0,0,0.00,,,0.00,WUHU21623XXSP,2013-09-11 06:16:00,
2013-09-10 23:21:00,64.0,0.0,29.84,NW,315,0.0,0.0,0,0.00,,,0.00,WUHU21623XXSP,2013-09-11 06:21:00,
2013-09-10 23:26:00,64.0,0.0,29.84,WNW,292,0.0,0.0,0,0.00,,,0.00,WUHU21623XXSP,2013-09-11 06:26:00,
2013-09-10 23:31:00,64.0,0.0,29.84,WSW,247,0.0,0.0,0,0.00,,,0.00,WUHU21623XXSP,2013-09-11 06:31:00,
2013-09-10 23:36:00,64.0,0.0,29.84,SSW,202,0.0,1.3,0,0.00,,,0.00,WUHU21623XXSP,2013-09-11 06:36:00,
2013-09-10 23:41:00,64.0,0.0,29.84,West,270,0.0,1.3,0,0.00,,,0.00,WUHU21623XXSP,2013-09-11 06:41:00,
2013-09-10 23:46:00,64.0,0.0,29.84,SSW,202,0.0,0.0,0,0.00,,,0.00,WUHU21623XXSP,2013-09-11 06:46:00,
2013-09-10 23:51:00,64.0,0.0,29.84,WSW,247,0.0,0.0,0,0.00,,,0.00,WUHU21623XXSP,2013-09-11 06:51:00,
2013-09-10 23:56:00,64.0,0.0,29.84,WNW,292,0.0,0.0,0,0.00,,,0.00,WUHU21623XXSP,2013-09-11 06:56:00,